User: anonymous   Login
Location: Koslow
(50.3020°N, 18.5663°E)
Time: 16:27:44
(UTC+00:00)
Language:

STARLINK-41 - Orbit

View from above orbital plane
View from above orbital plane
View from above satellite
View from above satellite

Ground track
Ground track

The orbit data is extracted from the following two-line orbital elements,

1 44277U 19029AU  20222.37327385  .01090556  12276-4  10000-3 0  9993
2 44277  52.9901 257.7587 0015013 227.2645 148.1546 16.37648131 68116
Epoch (UTC): 09 August 2020 08:57:30
Eccentricity: 0.0015013
inclination: 52.9901°
perigee height: 162 km
apogee height: 182 km
right ascension of ascending node: 257.7587°
argument of perigee: 227.2645°
revolutions per day: 16.37648131
mean anomaly at epoch: 148.1546°
orbit number at epoch: 6811

The dashed part of the orbit path shows where the satellite is in the earth's shadow,  

DLR